Showing default

NANOSAT(1), 28493

Orbit data source: Space-Track

NANOSAT(1), 28493 is a payload satellite owned by INTA (ES) in SSO that was launched on Sat, 18 Dec 2004 UTC via an ARIANE 5G+ launch vehicle from the French Guiana (FRGUI). Payload-class satellites include a variety of spacecraft equipped with specific instruments for various scientific and technological missions. These include communications satellites like Starlink; space stations such as the ISS; scientific satellites like the Hubble; Earth observation satellites from companies like Planet Labs, Umbra, and HawkEye 360; GPS; miniature CubeSats for education and research; and military/defense satellites.

Loading next visibility...
Identifier
28493, 2004-049B
Orbit
SSO
Country
Flag of ESES / SPN
Related business
Manufacturer
INTA
Mission
Operational Civil Technology
Bus & Motor
NANOSAT, Unknown motor
Mass
20 kg wet, 20 kg dry
Launch date (UTC)
2004-12-18 (22 years ago)
Launch vehicle
ARIANE 5G+
Launch site
French Guiana (FRGUI)
Object type
Payload
Rocket body
Debris
Shape & HBR
Poly, 0.3 m
Radar Cross Section
0.286 m², Medium (>0.1 m² and < 1m²)

Expand to show TLE details & history
Last TLE update: 2 days ago

TLE from 2 days ago
0 NANOSAT(1)
1 28493U 04049B   26171.34633970  .00000741  00000-0  10490-3 0  9994
2 28493  98.2281 308.0845 0002736 287.9038  72.1875 14.80164628155912
Epoch: 2026-06-20T08:18Z
TLE epoch observation values (Epoch: 2026-06-20T08:18:43.750Z)
Latitude
0.00004°
Longitude
-85.16008°
Altitude
631.23 km
Speed
7.543 km/s
True Right ascension
20h 32m 20s
True Declination
0° 00' 00"
Sunlit
Object was in full shadow at epoch
Visualization orbit readout
Latitude
Unknown
Longitude
Unknown
Altitude
Unknown
Speed
Unknown
Apparent Right ascension
Unknown
Apparent Declination
Unknown
Sunlit
N/A
Visualization observer readout
Local Sidereal Time
23:09:09
Azimuth
Unknown
Elevation
Unknown
Doppler factor
Unknown
Orbital elements
Apogee altitude
627.776 km
Perigee altitude
623.944 km
Semi-major axis
7,003.997 km
Eccentricity
0.00027
Inclination
98.2281°
RAAN
308.0845°
Arg. of periapsis
287.9038°
True anomaly
72.21735°
Mean anomaly
72.1875°
Eccentric anomaly
72.20243°
Mean motion
3.70275 °/min
Orbital period
97.23 mins
BSTAR
0.0001049
Loading maneuver chart data...
Computing Atmospheric mass density...
Loading historical data...
Loading historical data...
Loading historical data...
Loading historical data...
Loading historical data...
Loading historical data...
Loading historical data...

Documentation

Showing up to 5 results
|